Location: Newark
(27.9675°N, 86.8869°E)
Time: 12:10:48
(UTC+00:00)

Altair - Pass Details

Date: 25 October 2019
Orbit: 1502 x 1682 km, 47.2° (Epoch: 13 November)

Event Time Altitude Azimuth Distance (km) Brightness Sun altitude
Rises 08:36:09 0° 311° (NW) 4,803 10.2 34.4°
Reaches altitude 10° 08:39:41 10° 320° (NW) 3,843 9.7 33.8°
Maximum altitude 08:48:26 34° 23° (NNE) 2,468 8.5 32.3°
Drops below altitude 10° 08:57:22 10° 86° (E) 3,933 9.3 30.7°
Sets 09:01:00 0° 95° (E) 4,927 9.8 30.1°
